Location: downtown San Diego
(32.7310°N, 117.1990°W)
Time: 02:34:26
(UTC-07:00)

Cosmos 1850 Rocket - Pass Details

Date: 12 July 2018
Orbit: 754 x 786 km, 74.0° (Epoch: 16 July)

Event Time Altitude Azimuth Distance (km) Brightness Sun altitude
Rises 21:25:44 0° 203° (SSW) 3,211 7.1 -16.1°
Reaches altitude 10° 21:28:06 10° 207° (SSW) 2,293 6.3 -16.5°
Maximum altitude 21:33:16 63° 288° (WNW) 857 4.5 -17.3°
Drops below altitude 10° 21:38:30 10° 10° (N) 2,328 6.9 -18.1°
Sets 21:40:56 0° 13° (NNE) 3,264 7.7 -18.5°
